User: anonymous   Login
Location: Memmingen
(47.9830°N, 10.1733°E)
Time: 00:17:44
(UTC+01:00)
Language:

ISS - Orbit

View from above orbital plane
View from above orbital plane
View from above satellite
View from above satellite

Ground track
Ground track

The orbit data is extracted from the following two-line orbital elements,

1 25544U 98067A   17326.60212907  .00016717  00000-0  10270-3 0  9025
2 25544  51.6387 328.6040 0003867 140.2566 219.8871 15.54189927  6387
Epoch (UTC): 22 November 2017 14:27:03
Eccentricity: 0.0003867
inclination: 51.6387°
perigee height: 402 km
apogee height: 407 km
right ascension of ascending node: 328.6040°
argument of perigee: 140.2566°
revolutions per day: 15.54189927
mean anomaly at epoch: 219.8871°
orbit number at epoch: 638

The dashed part of the orbit path shows where the satellite is in the earth's shadow,  

DLR